Live-Position
3D-Globus wird geladen...
Über Starlink 3644
Group: 3 satellites
Beschreibung wird geladen...
Nächste Überflüge
Passes for default location (London). Set your location on the main map for personalized predictions.
Höhenverlauf
Loading altitude history...
No altitude history available
Zweizeiliger Elementsatz
1 51987U 22025AH 26105.61041842 .00001132 00000-0 89181-4 0 9999
2 51987 53.2172 233.3747 0001200 102.5722 257.5405 15.08839607226637
Epoch: 15. Apr. 2026 •
Age: 8 hours
Aktueller Status
Höhe 553.5 km
Geschwindigkeit 7.58 km/s
Subsatellitenpunkt -39.45°S,
14.6°E
Startdatum 9. März 2022
Alter 4.1 years
Typ internet
Startgruppe
Falcon 9 •
Group 4-10 •
40 satellites
Starlink 3700
51956
Starlink 3694 51957
Starlink 3692 51958
Starlink 3704 51959
Starlink 3691 51960
Starlink 3697 51962
Starlink 3675 51963
Starlink 3690 51964
Starlink 3696 51965
Starlink 3699 51966
Starlink 3681 51968
Starlink 3680 51969
Starlink 3677 51970
Starlink 3669 51971
Starlink 3671 51972
Starlink 3679 51973
Starlink 3672 51974
Starlink 3674 51975
Starlink 3660 51977
Starlink 3649 51980
...and 19 more
Technische Details
Klassifizierung Payload
Masse 297.00 kg
Trockenmasse 275.00 kg
Gesamtmasse 297.00 kg
Länge 0.20 m
Durchmesser 2.80 m
Spannweite 9.00 m
Form Box + pan
Hersteller SPXS
Bus-Typ Starlink
Phasenstatus In Orbit
Besitzer/Staat SPXS/US
Most Searched
Loading...